Location: Vale
(35.4830°N, 81.3830°W)
Time: 09:12:52
(UTC-04:00)

Amateur Radio Satellites - All Passes

Search period start: 07 July 2015 08:42
Search period end: 08 July 2015 08:42
Location: Vale, 35.4830°N, 81.3830°W

Satellite Date Start Highest point End Downlink Frequencies (MHz)
Time Altitude Azimuth
STRAND 1 07 Jul 08:46:23 08:50:25 22° 266° (W) 08:54:18 437.568
PRISM 07 Jul 08:49:52 08:52:25 15° 268° (W) 08:54:50 437.425
AIST 2 07 Jul 08:50:32 08:54:31 39° 304° (NW) 08:58:33 435.215
BEESAT 2 07 Jul 08:53:25 08:54:34 11° 316° (NW) 08:55:33 435.950
DANDE 07 Jul 08:55:47 09:02:58 63° 279° (W) 09:08:26 436.750
CUTE-I 07 Jul 09:05:09 09:08:55 19° 294° (WNW) 09:12:30 437.470
AUBIESAT-1 07 Jul 09:07:16 09:10:31 55° 70° (ENE) 09:13:54 437.475
SEEDS 07 Jul 09:09:18 09:11:21 14° 91° (E) 09:13:37 437.485
DOVE 4 07 Jul 09:11:13 09:14:15 20° 94° (E) 09:17:26 437.250
GONETS M04 07 Jul 09:14:05 09:22:34 58° 92° (E) 09:31:06
CUSAT 1 07 Jul 09:15:02 09:20:24 28° 282° (WNW) 09:24:37 437.405
BRITE-PL 07 Jul 09:21:19 09:25:33 86° 99° (E) 09:29:41 437.365/2234.400
PHONESAT 2.4 07 Jul 09:30:08 09:33:29 51° 345° (NNW) 09:36:51 2401.200-2431.200
HO-68 07 Jul 09:30:47 09:37:26 41° 98° (E) 09:44:09 435.675
CINEMA 3 07 Jul 09:34:48 09:37:25 16° 93° (E) 09:40:15 145.822/145.860
COMPASS 1 07 Jul 09:40:19 09:43:48 25° 95° (E) 09:47:21 437.405
M-CUBED/EXP-1 PRIME 07 Jul 09:44:58 09:47:55 30° 258° (WSW) 09:50:59 437.505
Oscar 11 07 Jul 09:54:01 09:55:55 13° 91° (E) 09:58:04 145.826/435.025
CUTE 1.7 + AOD 2 07 Jul 09:59:49 10:04:07 72° 101° (E) 10:08:24 437.475
CUBEBUG 2 07 Jul 10:02:37 10:05:12 16° 93° (E) 10:07:59 437.445
CANX-2 07 Jul 10:03:40 10:07:59 90° 283° (WNW) 10:12:17 2200.000
VERMONT LUNAR 07 Jul 10:06:49 10:09:42 34° 8° (N) 10:12:36 437.305
GOMX 1 07 Jul 10:19:27 10:23:11 33° 287° (WNW) 10:26:54 467.674
FUNcube-1 07 Jul 10:25:58 10:28:45 17° 93° (E) 10:31:43 145.935
UNISAT 6 07 Jul 10:26:55 10:30:08 22° 70° (ENE) 10:33:27 437.425
RS-15 07 Jul 10:35:47 10:46:26 40° 46° (NE) 10:57:39 29.354- 29.394
QB50P1 07 Jul 10:37:47 10:38:49 11° 67° (ENE) 10:40:06 145.935-145.965
DELFI C3 07 Jul 10:40:45 10:44:23 31° 96° (E) 10:48:02 145.870
SEEDS 07 Jul 10:43:20 10:47:22 41° 286° (WNW) 10:51:23 437.485
UWE-3 07 Jul 10:45:58 10:50:00 41° 98° (E) 10:54:08 435.000/436.395/437.385
AAUSAT CUBESAT 2 07 Jul 10:46:25 10:50:34 58° 285° (WNW) 10:54:42 437.432
DOVE 4 07 Jul 10:48:35 10:52:04 26° 288° (WNW) 10:55:31 437.250
NANOSAT C BR1 07 Jul 10:49:20 10:51:41 15° 69° (ENE) 10:54:13 145.865
DUCHIFAT 1 07 Jul 10:54:48 10:57:29 17° 69° (ENE) 11:00:18 145.980
BUGSAT 1 07 Jul 10:58:55 11:00:29 12° 68° (ENE) 11:02:17 437.445
POLYITAN 1 07 Jul 11:03:21 11:06:37 23° 71° (ENE) 11:09:59 437.675
Cosmos 2499 07 Jul 11:08:38 11:15:33 65° 93° (E) 11:22:37 435.465 / 435.565
PHONESAT 2.4 07 Jul 11:08:41 11:11:52 34° 2° (N) 11:15:03 2401.200-2431.200
ANTELSAT 07 Jul 11:10:21 11:14:37 72° 75° (ENE) 11:18:53 437.575/2403.000
DX 1 07 Jul 11:10:43 11:13:41 18° 94° (E) 11:16:47 434.975-435.025
CINEMA 3 07 Jul 11:10:57 11:14:46 33° 286° (WNW) 11:18:36 145.822/145.860
GONETS M04 07 Jul 11:12:41 11:19:59 27° 290° (WNW) 11:26:59
VELOX 1 07 Jul 11:15:25 11:15:58 10° 89° (E) 11:16:50 145.980
COMPASS 1 07 Jul 11:16:00 11:19:21 23° 289° (WNW) 11:22:37 437.405
HO-68 07 Jul 11:18:44 11:25:03 34° 294° (WNW) 11:31:14 435.675
HUMSAT D 07 Jul 11:19:35 11:23:17 30° 97° (E) 11:27:03 437.325/437.525
TIGRISAT 07 Jul 11:21:15 11:25:32 87° 254° (WSW) 11:29:49 435.000
ZACube-1 07 Jul 11:26:14 11:30:30 84° 284° (WNW) 11:34:52 437.345
UKube-1 07 Jul 11:26:17 11:29:52 26° 96° (E) 11:33:30 .
Oscar 11 07 Jul 11:28:13 11:32:23 45° 286° (WNW) 11:36:32 145.826/435.025
POPSAT HIP 1 07 Jul 11:31:31 11:35:35 47° 75° (ENE) 11:39:41 437.405
QB50P2 07 Jul 11:31:37 11:35:42 50° 75° (ENE) 11:39:49 145.880/145.840
CUBEBUG 2 07 Jul 11:38:07 11:42:02 35° 286° (WNW) 11:45:59 437.445
VERMONT LUNAR 07 Jul 11:43:38 11:46:45 77° 205° (SSW) 11:49:54 437.305
AISAT 07 Jul 12:00:33 12:04:40 39° 98° (E) 12:08:47 437.250
50 SAT 07 Jul 12:01:08 12:04:55 46° 99° (E) 12:08:44 437.505
FUNcube-1 07 Jul 12:01:20 12:05:11 33° 287° (WNW) 12:09:02 145.935
UNISAT 6 07 Jul 12:03:11 12:06:50 26° 264° (W) 12:10:24 437.425
CUBEBUG 1 07 Jul 12:08:41 12:12:14 25° 95° (E) 12:15:50 437.445
QB50P1 07 Jul 12:10:06 12:14:16 55° 260° (W) 12:18:26 145.935-145.965
DELFI C3 07 Jul 12:16:30 12:19:15 17° 290° (WNW) 12:21:51 145.870
NANOSAT C BR1 07 Jul 12:23:16 12:27:14 38° 262° (W) 12:31:12 145.865
UWE-3 07 Jul 12:23:46 12:26:15 15° 291° (WNW) 12:28:35 435.000/436.395/437.385
DUCHIFAT 1 07 Jul 12:29:12 12:33:04 33° 263° (W) 12:36:53 145.980
BUGSAT 1 07 Jul 12:31:29 12:35:35 49° 260° (W) 12:39:40 437.445
POLYITAN 1 07 Jul 12:38:53 12:42:26 25° 265° (W) 12:45:53 437.675
ESTCUBE 1 07 Jul 12:43:58 12:48:32 80° 102° (ESE) 12:53:02 437.505/2401.250
DX 1 07 Jul 12:46:08 12:50:01 32° 288° (WNW) 12:53:49 434.975-435.025
PHONESAT 2.4 07 Jul 12:46:46 12:50:11 65° 18° (NNE) 12:53:38 2401.200-2431.200
RS-15 07 Jul 12:48:00 12:59:36 63° 247° (WSW) 13:11:29 29.354- 29.394
VELOX 1 07 Jul 12:48:38 12:52:58 57° 285° (WNW) 12:57:16 145.980
HUMSAT D 07 Jul 12:55:51 12:58:50 19° 290° (WNW) 13:01:42 437.325/437.525
SPROUT 07 Jul 12:58:16 13:01:46 25° 95° (E) 13:05:20 437.525
UKube-1 07 Jul 13:02:27 13:05:54 23° 290° (WNW) 13:09:15 .
Cosmos 2499 07 Jul 13:04:40 13:09:28 18° 293° (WNW) 13:13:57 435.465 / 435.565
POPSAT HIP 1 07 Jul 13:10:10 13:11:47 12° 270° (W) 13:13:08 437.405
QB50P2 07 Jul 13:10:34 13:11:56 11° 270° (W) 13:13:03 145.880/145.840
ISS 07 Jul 13:13:13 13:14:39 12° 25° (NNE) 13:16:10 145.825
VERMONT LUNAR 07 Jul 13:21:56 13:23:19 12° 216° (SW) 13:24:39 437.305
TISAT 1 07 Jul 13:26:47 13:30:34 33° 97° (E) 13:34:22 437.305
50 SAT 07 Jul 13:37:55 13:39:11 11° 292° (WNW) 13:40:14 437.505
AISAT 07 Jul 13:38:10 13:40:58 16° 292° (WNW) 13:43:34 437.250
Oscar 19 07 Jul 13:44:31 13:49:25 48° 73° (ENE) 13:54:22 437.125/150
CUBEBUG 1 07 Jul 13:44:59 13:48:31 24° 289° (WNW) 13:51:55 437.445
SWISSCUBE 07 Jul 14:03:28 14:06:06 15° 91° (E) 14:08:58 437.505
ITAMSAT 1 07 Jul 14:04:37 14:08:19 21° 67° (ENE) 14:12:13 435.822/435.867
ITUPSAT 1 07 Jul 14:10:15 14:13:05 16° 92° (E) 14:16:07 437.325
Gurwin Techsat 1B 07 Jul 14:16:50 14:21:16 28° 69° (ENE) 14:25:48 435.225
PHONESAT 2.4 07 Jul 14:25:06 14:28:02 26° 213° (SSW) 14:30:58 2401.200-2431.200
SPROUT 07 Jul 14:34:21 14:37:46 23° 289° (WNW) 14:41:04 437.525
JAS-2 07 Jul 14:39:53 14:40:55 11° 61° (ENE) 14:42:17 435.910
PCSat 07 Jul 14:47:28 14:51:52 27° 108° (ESE) 14:56:24 145.827
ISS 07 Jul 14:48:15 14:51:29 89° 33° (NNE) 14:54:43 145.825
YUBILEINY 07 Jul 14:51:16 14:59:56 62° 80° (E) 15:08:38 435.215
TISAT 1 07 Jul 15:03:22 15:06:06 17° 291° (WNW) 15:08:41 437.305
Cosmos 2491 07 Jul 15:09:51 15:18:04 47° 90° (E) 15:26:22 435.465 / 435.565
BEESAT 3 07 Jul 15:17:53 15:20:22 16° 48° (NE) 15:22:57 437.485
BEESAT 07 Jul 15:23:21 15:28:10 78° 283° (WNW) 15:32:56 436.000
Oscar 19 07 Jul 15:25:45 15:29:05 17° 268° (W) 15:32:11 437.125/150
BEESAT 2 07 Jul 15:34:36 15:37:28 19° 49° (NE) 15:40:23 435.950
AO-7 07 Jul 15:39:00 15:46:29 40° 65° (ENE) 15:54:09 29.400- 29.500
SWISSCUBE 07 Jul 15:39:38 15:44:17 47° 287° (WNW) 15:48:51 437.505
HORYU 2 07 Jul 15:41:18 15:44:42 23° 70° (ENE) 15:48:13 437.375
ITAMSAT 1 07 Jul 15:42:36 15:47:33 43° 261° (W) 15:52:31 435.822/435.867
KKS-1 07 Jul 15:44:05 15:47:47 26° 96° (E) 15:51:33 437.445
ITUPSAT 1 07 Jul 15:46:39 15:51:15 45° 287° (WNW) 15:55:47 437.325
Cosmos 2504 07 Jul 15:54:17 15:57:59 15° 66° (ENE) 16:02:22 435.465 / 435.565
Gurwin Techsat 1B 07 Jul 15:56:29 16:01:11 31° 264° (W) 16:05:50 435.225
AIST 1 07 Jul 16:08:02 16:12:26 82° 277° (W) 16:16:52
JUGNU 07 Jul 16:15:15 16:18:42 16° 173° (S) 16:22:11 437.505
JAS-2 07 Jul 16:20:10 16:25:20 78° 258° (WSW) 16:30:46 435.910
STARS 07 Jul 16:27:17 16:31:32 49° 100° (E) 16:35:47 437.465
PCSat 07 Jul 16:30:10 16:35:09 36° 304° (WNW) 16:40:07 145.827
O/OREOS (USA 219) 07 Jul 16:35:43 16:38:37 17° 58° (ENE) 16:41:40 437.305
SO-50 07 Jul 16:37:01 16:41:42 84° 119° (ESE) 16:46:35 436.795
YUBILEINY 07 Jul 16:49:24 16:56:11 25° 276° (W) 17:02:38 435.215
BEESAT 3 07 Jul 16:54:44 16:58:33 41° 245° (WSW) 17:02:18 437.485
Cosmos 2491 07 Jul 17:07:15 17:15:09 34° 288° (WNW) 17:22:51 435.465 / 435.565
BEESAT 2 07 Jul 17:11:56 17:15:39 34° 246° (WSW) 17:19:16 435.950
SRMSAT 07 Jul 17:14:33 17:17:14 13° 169° (S) 17:20:00 437.500
AIST 2 07 Jul 17:14:48 17:18:54 51° 58° (ENE) 17:22:56 435.215
HORYU 2 07 Jul 17:17:27 17:21:15 27° 264° (W) 17:24:58 437.375
KKS-1 07 Jul 17:20:45 17:24:19 24° 290° (WNW) 17:27:47 437.445
AO-7 07 Jul 17:31:27 17:39:15 42° 261° (W) 17:47:00 29.400- 29.500
Cubesat XI-IV 07 Jul 17:40:49 17:43:41 15° 65° (ENE) 17:46:49 437.490
Cosmos 2504 07 Jul 17:43:32 17:51:15 90° 100° (E) 17:59:32 435.465 / 435.565
MOZHAYETS 4 07 Jul 18:01:55 18:06:36 87° 280° (W) 18:11:15
JUGNU 07 Jul 18:03:16 18:07:01 17° 183° (S) 18:10:45 437.505
STARS 07 Jul 18:05:28 18:07:35 13° 293° (WNW) 18:09:30 437.465
O/OREOS (USA 219) 07 Jul 18:14:00 18:18:16 40° 255° (WSW) 18:22:31 437.305
SO-50 07 Jul 18:20:43 18:22:59 13° 318° (NW) 18:25:06 436.795
CUBESAT XI-V 07 Jul 18:39:31 18:42:27 17° 92° (E) 18:45:33 437.345
CUTE-I 07 Jul 18:42:45 18:48:00 60° 74° (ENE) 18:53:19 437.470
AIST 2 07 Jul 18:55:32 18:57:03 11° 251° (WSW) 18:58:19 435.215
SRMSAT 07 Jul 19:01:54 19:05:42 17° 179° (S) 19:09:29 437.500
Cubesat XI-IV 07 Jul 19:18:00 19:23:19 63° 259° (WSW) 19:28:40 437.490
STRAND 1 07 Jul 19:21:11 19:24:08 16° 91° (E) 19:27:19 437.568
GONETS M04 07 Jul 19:29:04 19:35:32 24° 68° (ENE) 19:42:20
Cosmos 2504 07 Jul 19:38:49 19:42:45 14° 277° (W) 19:46:08 435.465 / 435.565
DANDE 07 Jul 19:41:30 19:44:06 71° 81° (E) 19:46:44 436.750
GOMX 1 07 Jul 19:47:45 19:50:40 16° 69° (ENE) 19:53:42 467.674
JUGNU 07 Jul 19:53:15 19:55:18 12° 193° (SSW) 19:57:16 437.505
CUSAT 1 07 Jul 19:55:17 19:57:34 27° 264° (W) 20:00:01 437.405
HO-68 07 Jul 19:57:24 20:02:37 23° 63° (ENE) 20:08:05 435.675
DOVE 4 07 Jul 20:14:20 20:17:24 18° 70° (ENE) 20:20:31 437.250
CUBESAT XI-V 07 Jul 20:15:44 20:20:06 39° 287° (WNW) 20:24:24 437.345
CUTE-I 07 Jul 20:25:31 20:28:34 15° 270° (W) 20:31:18 437.470
BRITE-PL 07 Jul 20:27:55 20:33:21 73° 77° (ENE) 20:38:28 437.365/2234.400
COMPASS 1 07 Jul 20:30:26 20:32:00 12° 68° (ENE) 20:33:48 437.405
PRISM 07 Jul 20:33:07 20:37:19 88° 284° (WNW) 20:41:29 437.425
CINEMA 3 07 Jul 20:35:22 20:36:49 12° 68° (ENE) 20:38:30 145.822/145.860
CUTE 1.7 + AOD 2 07 Jul 20:49:53 20:53:38 33° 73° (ENE) 20:57:28 437.475
SRMSAT 07 Jul 20:50:59 20:54:09 15° 189° (S) 20:57:14 437.500
CANX-2 07 Jul 20:53:36 20:57:33 42° 74° (ENE) 21:01:34 2200.000
STRAND 1 07 Jul 20:58:43 21:03:41 51° 287° (WNW) 21:08:37 437.568
Cosmos 2499 07 Jul 21:03:08 21:08:28 20° 68° (ENE) 21:14:27 435.465 / 435.565
GOMX 1 07 Jul 21:23:33 21:28:32 49° 261° (W) 21:33:12 467.674
GONETS M04 07 Jul 21:24:34 21:33:09 65° 267° (W) 21:41:41
DELFI C3 07 Jul 21:26:38 21:28:29 13° 69° (ENE) 21:30:33 145.870
M-CUBED/EXP-1 PRIME 07 Jul 21:27:42 21:31:05 22° 100° (E) 21:34:42 437.505
SEEDS 07 Jul 21:31:51 21:36:02 89° 62° (ENE) 21:40:15 437.485
AAUSAT CUBESAT 2 07 Jul 21:33:51 21:37:54 60° 76° (ENE) 21:42:01 437.432
UWE-3 07 Jul 21:40:57 21:44:13 23° 71° (ENE) 21:47:33 435.000/436.395/437.385
HO-68 07 Jul 21:42:49 21:49:53 62° 258° (WSW) 21:56:57 435.675
DOVE 4 07 Jul 21:50:23 21:54:57 40° 262° (W) 21:59:15 437.250
COMPASS 1 07 Jul 22:03:18 22:07:18 47° 261° (W) 22:11:20 437.405
DX 1 07 Jul 22:04:59 22:06:34 12° 67° (ENE) 22:08:23 434.975-435.025
CINEMA 3 07 Jul 22:09:17 22:13:41 54° 260° (W) 22:17:55 145.822/145.860
HUMSAT D 07 Jul 22:09:48 22:12:03 15° 69° (ENE) 22:14:28 437.325/437.525
BRITE-PL 07 Jul 22:10:23 22:12:19 11° 271° (W) 22:13:50 437.365/2234.400
UKube-1 07 Jul 22:19:10 22:21:45 16° 68° (ENE) 22:24:30 .
ZACube-1 07 Jul 22:19:19 22:23:21 49° 75° (ENE) 22:27:23 437.345
Oscar 11 07 Jul 22:19:32 22:23:50 88° 257° (WSW) 22:28:09 145.826/435.025
AUBIESAT-1 07 Jul 22:23:38 22:28:03 80° 107° (ESE) 22:32:42 437.475
CUTE 1.7 + AOD 2 07 Jul 22:26:57 22:29:41 16° 268° (W) 22:32:17 437.475
CANX-2 07 Jul 22:31:40 22:33:45 13° 269° (W) 22:35:37 2200.000
CUBEBUG 2 07 Jul 22:33:04 22:37:18 62° 259° (W) 22:41:28 437.445
50 SAT 07 Jul 22:43:23 22:45:49 17° 70° (ENE) 22:48:23 437.505
FUNcube-1 07 Jul 22:53:42 22:57:51 62° 259° (W) 23:01:57 145.935
Cosmos 2499 07 Jul 22:54:22 23:02:26 76° 265° (W) 23:11:02 435.465 / 435.565
AISAT 07 Jul 22:55:41 22:59:19 25° 71° (ENE) 23:03:01 437.250
DELFI C3 07 Jul 22:59:30 23:03:16 39° 262° (W) 23:07:03 145.870
M-CUBED/EXP-1 PRIME 07 Jul 23:01:55 23:05:52 33° 292° (WNW) 23:09:59 437.505
CUBEBUG 1 07 Jul 23:02:52 23:05:25 16° 68° (ENE) 23:08:10 437.445
ANTELSAT 07 Jul 23:05:53 23:09:00 19° 94° (E) 23:12:19 437.575/2403.000
TIGRISAT 07 Jul 23:16:12 23:19:44 24° 95° (E) 23:23:27 435.000
UWE-3 07 Jul 23:17:13 23:20:41 24° 265° (W) 23:24:03 435.000/436.395/437.385
DX 1 07 Jul 23:38:06 23:42:24 54° 260° (W) 23:46:42 434.975-435.025
PCSat 07 Jul 23:39:10 23:41:41 13° 45° (NE) 23:44:26 145.827
ESTCUBE 1 07 Jul 23:40:27 23:44:49 50° 74° (ENE) 23:49:14 437.505/2401.250
VELOX 1 07 Jul 23:42:46 23:47:14 86° 77° (ENE) 23:51:43 145.980
HUMSAT D 07 Jul 23:43:44 23:47:31 36° 262° (W) 23:51:17 437.325/437.525
SPROUT 07 Jul 23:50:48 23:53:00 14° 68° (ENE) 23:55:25 437.525
UKube-1 07 Jul 23:53:31 23:57:36 39° 262° (W) 00:01:39 .
UNISAT 6 07 Jul 23:56:51 00:01:19 76° 102° (ESE) 00:05:51 437.425
QB50P1 07 Jul 23:58:29 00:02:06 28° 96° (E) 00:05:45 145.935-145.965
ZACube-1 07 Jul 23:59:03 00:00:04 11° 270° (W) 00:00:48 437.345
NANOSAT C BR1 08 Jul 00:10:56 00:14:52 39° 98° (E) 00:18:49 145.865
DUCHIFAT 1 08 Jul 00:16:28 00:20:29 44° 99° (E) 00:24:30 145.980
TISAT 1 08 Jul 00:16:46 00:19:36 18° 70° (ENE) 00:22:35 437.305
50 SAT 08 Jul 00:16:58 00:20:16 27° 264° (W) 00:23:32 437.505
BUGSAT 1 08 Jul 00:17:03 00:20:29 27° 96° (E) 00:23:57 437.445
POLYITAN 1 08 Jul 00:26:20 00:30:31 64° 100° (E) 00:34:42 437.675
AISAT 08 Jul 00:32:06 00:35:50 25° 265° (W) 00:39:28 437.250
CUBEBUG 1 08 Jul 00:37:16 00:41:29 41° 262° (W) 00:45:40 437.445
ANTELSAT 08 Jul 00:41:52 00:45:52 33° 287° (WNW) 00:49:53 437.575/2403.000
Cosmos 2499 08 Jul 00:52:18 00:54:40 11° 279° (W) 00:56:17 435.465 / 435.565
TIGRISAT 08 Jul 00:52:44 00:56:27 26° 289° (WNW) 01:00:09 435.000
POPSAT HIP 1 08 Jul 00:55:12 00:59:20 56° 285° (WNW) 01:03:27 437.405
QB50P2 08 Jul 00:55:30 00:59:38 54° 285° (WNW) 01:03:44 145.880/145.840
RS-15 08 Jul 00:58:01 01:06:21 28° 105° (ESE) 01:15:17 29.354- 29.394
SWISSCUBE 08 Jul 01:08:05 01:10:13 13° 66° (ENE) 01:12:35 437.505
SO-50 08 Jul 01:11:41 01:16:11 34° 53° (NE) 01:20:38 436.795
ITUPSAT 1 08 Jul 01:15:01 01:17:23 14° 66° (ENE) 01:20:00 437.325
ESTCUBE 1 08 Jul 01:19:53 01:22:02 13° 270° (W) 01:23:56 437.505/2401.250
PCSat 08 Jul 01:20:27 01:25:54 86° 245° (WSW) 01:31:19 145.827
SPROUT 08 Jul 01:24:39 01:28:46 43° 262° (W) 01:32:52 437.525
Cosmos 2491 08 Jul 01:25:17 01:30:45 19° 65° (ENE) 01:36:43 435.465 / 435.565
QB50P1 08 Jul 01:34:41 01:37:49 20° 290° (WNW) 01:40:50 145.935-145.965
NANOSAT C BR1 08 Jul 01:47:59 01:50:24 15° 291° (WNW) 01:52:40 145.865
TISAT 1 08 Jul 01:51:22 01:55:11 31° 263° (W) 01:58:57 437.305
BUGSAT 1 08 Jul 01:52:55 01:55:47 19° 290° (WNW) 01:58:32 437.445
DUCHIFAT 1 08 Jul 01:53:54 01:55:57 13° 292° (WNW) 01:57:46 145.980
YUBILEINY 08 Jul 01:58:43 02:00:57 12° 79° (E) 02:03:59 435.215
Oscar 19 08 Jul 01:59:47 02:03:38 22° 94° (E) 02:07:37 437.125/150
AIST 1 08 Jul 02:19:27 02:22:20 18° 73° (ENE) 02:25:22
BEESAT 08 Jul 02:26:36 02:31:22 85° 74° (ENE) 02:36:10 436.000
Gurwin Techsat 1B 08 Jul 02:37:18 02:39:49 14° 90° (E) 02:42:39 435.225
KKS-1 08 Jul 02:40:08 02:43:02 18° 69° (ENE) 02:46:05 437.445
SWISSCUBE 08 Jul 02:42:55 02:47:36 59° 259° (W) 02:52:22 437.505
ITUPSAT 1 08 Jul 02:50:10 02:54:52 55° 260° (W) 02:59:35 437.325
SO-50 08 Jul 02:52:32 02:56:35 25° 249° (WSW) 03:00:28 436.795
RS-15 08 Jul 03:07:03 03:17:54 69° 303° (WNW) 03:29:06 29.354- 29.394
Cosmos 2491 08 Jul 03:20:03 03:28:49 80° 265° (W) 03:37:29 435.465 / 435.565
STARS 08 Jul 03:21:27 03:25:15 30° 72° (ENE) 03:29:06 437.465
JAS-2 08 Jul 03:31:51 03:36:30 19° 91° (E) 03:41:48 435.910
Oscar 19 08 Jul 03:38:24 03:43:07 37° 289° (WNW) 03:47:48 437.125/150
AO-7 08 Jul 03:46:51 03:49:53 13° 88° (E) 03:53:41 29.400- 29.500
YUBILEINY 08 Jul 03:47:56 03:56:35 78° 95° (E) 04:05:18 435.215
AIST 1 08 Jul 03:56:16 04:00:06 30° 269° (W) 04:03:49
ITAMSAT 1 08 Jul 03:58:12 04:03:26 87° 98° (E) 04:08:39 435.822/435.867
Gurwin Techsat 1B 08 Jul 04:15:02 04:20:18 61° 286° (WNW) 04:25:31 435.225
KKS-1 08 Jul 04:15:18 04:19:25 36° 262° (W) 04:23:32 437.445
STARS 08 Jul 04:58:25 05:01:44 20° 266° (W) 05:04:56 437.465
MOZHAYETS 4 08 Jul 05:00:39 05:05:09 61° 75° (ENE) 05:09:42
HORYU 2 08 Jul 05:10:43 05:15:12 70° 102° (ESE) 05:19:40 437.375
JAS-2 08 Jul 05:15:05 05:22:00 72° 285° (WNW) 05:29:36 435.910
Cosmos 2491 08 Jul 05:21:08 05:24:30 12° 281° (W) 05:27:05 435.465 / 435.565
RS-15 08 Jul 05:25:04 05:33:03 21° 331° (NNW) 05:40:53 29.354- 29.394
AO-7 08 Jul 05:35:38 05:44:04 82° 106° (ESE) 05:52:24 29.400- 29.500
CUBESAT XI-V 08 Jul 05:41:12 05:43:09 13° 67° (ENE) 05:45:22 437.345
ITAMSAT 1 08 Jul 05:41:28 05:42:18 10° 297° (WNW) 05:42:47 435.822/435.867
YUBILEINY 08 Jul 05:48:31 05:54:32 19° 295° (WNW) 06:00:06 435.215
ISS 08 Jul 05:50:56 05:51:59 11° 128° (SE) 05:53:10 145.825
VERMONT LUNAR 08 Jul 05:52:38 05:55:31 37° 151° (SSE) 05:58:25 437.305
Cosmos 2504 08 Jul 06:10:55 06:17:49 74° 94° (E) 06:24:44 435.465 / 435.565
STRAND 1 08 Jul 06:34:18 06:37:36 18° 67° (ENE) 06:41:07 437.568
MOZHAYETS 4 08 Jul 06:41:47 06:42:52 10° 271° (W) 06:43:37
BEESAT 3 08 Jul 06:43:53 06:47:55 71° 118° (ESE) 06:52:00 437.485
O/OREOS (USA 219) 08 Jul 06:44:16 06:48:10 31° 104° (ESE) 06:52:08 437.305
BEESAT 2 08 Jul 07:01:53 07:05:58 88° 114° (ESE) 07:10:07 435.950
CUTE-I 08 Jul 07:03:24 07:08:02 30° 96° (E) 07:12:43 437.470
JAS-2 08 Jul 07:03:50 07:06:19 12° 298° (WNW) 07:08:20 435.910
DANDE 08 Jul 07:06:29 07:10:14 16° 93° (E) 07:13:52 436.750
PHONESAT 2.4 08 Jul 07:08:42 07:11:39 27° 148° (SSE) 07:14:38 2401.200-2431.200
AIST 2 08 Jul 07:10:22 07:13:42 23° 112° (ESE) 07:17:08 435.215
CUSAT 1 08 Jul 07:15:29 07:20:20 25° 96° (E) 07:24:27 437.405
CUBESAT XI-V 08 Jul 07:15:30 07:20:09 59° 260° (W) 07:24:49 437.345
PRISM 08 Jul 07:20:01 07:23:57 43° 74° (ENE) 07:27:58 437.425
ISS 08 Jul 07:24:53 07:28:04 53° 321° (NW) 07:31:15 145.825
VERMONT LUNAR 08 Jul 07:29:23 07:32:23 45° 346° (NNW) 07:35:23 437.305
AO-7 08 Jul 07:30:07 07:36:02 21° 303° (WNW) 07:41:35 29.400- 29.500
Cubesat XI-IV 08 Jul 07:38:22 07:43:43 68° 101° (E) 07:49:02 437.490
RS-15 08 Jul 07:47:05 07:51:52 13° 7° (N) 07:56:55 29.354- 29.394
Cosmos 2504 08 Jul 08:06:54 08:10:54 15° 294° (WNW) 08:14:30 435.465 / 435.565
STRAND 1 08 Jul 08:11:30 08:16:28 48° 261° (W) 08:21:27 437.568
M-CUBED/EXP-1 PRIME 08 Jul 08:15:19 08:16:38 12° 63° (ENE) 08:18:06 437.505
O/OREOS (USA 219) 08 Jul 08:24:16 08:27:40 20° 300° (WNW) 08:30:58 437.305
BEESAT 3 08 Jul 08:25:08 08:26:24 11° 315° (NW) 08:27:29 437.485
GONETS M04 08 Jul 08:26:25 08:33:33 30° 86° (E) 08:40:56
